軌道要素
Epoch 2013 May 28.0 TT = JDT 2456440.5
T 2013 May 10.56162 TT Rudenko
q 3.0909434 (2000.0) P Q
n 0.11497393 Peri. 128.20512 +0.52651283 -0.84387763
a 4.1886087 Node 289.72362 +0.74172106 +0.51529049
e 0.2620597 Incl. 6.29545 +0.41549262 +0.14948663
P 8.57
From 70 observations 2012 Oct. 6-2021 Oct. 1, mean residual 0".8.
|